Погода в Тампе

США     27°56′50″N   82°27′31″W
темп.,
°C
ветер,
м/с
пор.,
м/с
влажн.,
%
обл.,
%
осадки,
мм/ч
давл.,
гПа
погр.,
м
21 октября, чт
чт2123:00+24в5963100 0.0 1022475
02:00+22в4866100 0.0 1020340
05:00+22всв3670100 0.0 1020215
08:00+21всв35725 0.0 1021174
11:00+26в34545 0.0 1021947
14:00+29вюв23435 0.0 10191397
17:00+30в12405 0.0 10171555
20:00+27ссз22555 0.0 1018214
22 октября, пт
пт2223:00+24вюв356475 0.0 1019348
02:00+23в247010 0.0 1018262
05:00+22вюв237675 0.0 1017185
08:00+22в23785 0.0 1017125
11:00+26вюв22575 0.0 1018614
14:00+30ююв224560 0.0 10161319
17:00+29з32459 0.0 10141500
20:00+26ссз45620 0.0 1016298
23 октября, сб
сб2323:00+25ссв34685 0.0 1016196
02:00+23всв23700 0.0 1016137
05:00+23в22730 0.0 1015110
08:00+22всв23740 0.0 1016111
11:00+27всв34540 0.0 1017645
14:00+31в33430 0.0 10161390
17:00+31в44403 0.0 10141557
20:00+28вюв485033 0.0 1015347
24 октября, вс
вс2423:00+25в510685 0.0 1017407
02:00+23в4877100 0.0 1017306
05:00+23всв488220 0.0 1016267
08:00+22в488665 0.0 1017282
11:00+27в5666100 0.0 1019859
14:00+30вюв4553100 0.0 10171357
17:00+28в5659100 0.2 1016704
20:00+26в6968100 0.2 1017415
25 октября, пн
пн2523:00+25в5973100 0.0 1018433
02:00+24в4880100 0.0 1018358
05:00+23в3783100 0.0 1017236
08:00+23всв3686100 0.0 1018216
11:00+27в3568100 0.0 1018681
14:00+30в335499 0.0 10161124
17:00+31всв334892 0.0 10141366
20:00+28ссв125797 0.0 101581